iso_date,epoch_date,Year,Hour,Min,DOY,POS_DOY,Lat,Lon,BP,Ts,Ta,has_bp,has_ts,has_ta,BuoyID,Buoy_Type,Buoy_Owner,Logistics,Hemisphere
2014-04-07T18:40:19Z,1396896019,2014,18,41,97.778,94.934,89.256,13.629,1023.9,-24.9,-999.0,yes,yes,no,300234061367410,SVP,unknown,NPEO,North
2014-04-07T19:00:28Z,1396897229,2014,19,0,97.792,94.948,89.256,13.629,1023.9,-25.4,-999.0,yes,yes,no,300234061367410,SVP,unknown,NPEO,North
2014-04-07T19:59:31Z,1396900771,2014,20,0,97.833,94.989,89.256,13.629,1023.9,-25.8,-999.0,yes,yes,no,300234061367410,SVP,unknown,NPEO,North
2014-04-07T21:00:00Z,1396904400,2014,21,0,97.875,97.875,89.253,13.6162,1024.1,-25.8,-999.0,yes,yes,no,300234061367410,SVP,unknown,NPEO,North
2014-04-07T22:00:28Z,1396908029,2014,22,0,97.917,97.875,89.253,13.6162,1024.2,-24.8,-999.0,yes,yes,no,300234061367410,SVP,unknown,NPEO,North
2014-04-07T22:59:31Z,1396911571,2014,23,0,97.958,97.875,89.253,13.6162,1024.3,-24.2,-999.0,yes,yes,no,300234061367410,SVP,unknown,NPEO,North
2014-04-08T00:00:00Z,1396915200,2014,0,0,98.0,98.0,89.249,13.5316,1024.2,-23.0,-999.0,yes,yes,no,300234061367410,SVP,unknown,NPEO,North
2014-04-08T01:00:28Z,1396918829,2014,1,0,98.042,98.0,89.249,13.5316,1024.0,-23.6,-999.0,yes,yes,no,300234061367410,SVP,unknown,NPEO,North
2014-04-08T01:59:31Z,1396922371,2014,2,0,98.083,98.0,89.249,13.5316,1023.9,-22.9,-999.0,yes,yes,no,300234061367410,SVP,unknown,NPEO,North
2014-04-08T03:00:00Z,1396926000,2014,3,0,98.125,98.125,89.2458,13.4316,1023.6,-22.6,-999.0,yes,yes,no,300234061367410,SVP,unknown,NPEO,North
2014-04-08T04:00:28Z,1396929629,2014,4,0,98.167,98.125,89.2458,13.4316,1023.3,-22.9,-999.0,yes,yes,no,300234061367410,SVP,unknown,NPEO,North
2014-04-08T04:59:31Z,1396933171,2014,5,0,98.208,98.125,89.2458,13.4316,1022.7,-21.6,-999.0,yes,yes,no,300234061367410,SVP,unknown,NPEO,North
2014-04-08T06:00:00Z,1396936800,2014,6,0,98.25,98.25,89.2432,13.4388,1022.5,-21.9,-999.0,yes,yes,no,300234061367410,SVP,unknown,NPEO,North
2014-04-08T07:00:28Z,1396940429,2014,7,0,98.292,98.25,89.2432,13.4388,1022.3,-22.2,-999.0,yes,yes,no,300234061367410,SVP,unknown,NPEO,North
2014-04-08T07:59:31Z,1396943971,2014,8,0,98.333,98.25,89.2432,13.4388,1022.1,-22.2,-999.0,yes,yes,no,300234061367410,SVP,unknown,NPEO,North
2014-04-08T09:00:00Z,1396947600,2014,9,0,98.375,98.375,89.2406,13.4174,1021.8,-22.9,-999.0,yes,yes,no,300234061367410,SVP,unknown,NPEO,North
2014-04-08T10:00:28Z,1396951229,2014,10,0,98.417,98.375,89.2406,13.4174,1021.7,-22.3,-999.0,yes,yes,no,300234061367410,SVP,unknown,NPEO,North
2014-04-08T10:59:31Z,1396954771,2014,11,0,98.458,98.375,89.2406,13.4174,1021.4,-22.6,-999.0,yes,yes,no,300234061367410,SVP,unknown,NPEO,North
2014-04-08T12:00:00Z,1396958400,2014,12,0,98.5,98.5,89.2382,13.3672,1021.1,-22.4,-999.0,yes,yes,no,300234061367410,SVP,unknown,NPEO,North
2014-04-08T13:00:28Z,1396962029,2014,13,0,98.542,98.5,89.2382,13.3672,1020.4,-22.1,-999.0,yes,yes,no,300234061367410,SVP,unknown,NPEO,North
2014-04-08T13:59:31Z,1396965571,2014,14,0,98.583,98.5,89.2382,13.3672,1019.7,-22.7,-999.0,yes,yes,no,300234061367410,SVP,unknown,NPEO,North
2014-04-08T15:00:00Z,1396969200,2014,15,0,98.625,98.625,89.2362,13.2868,1019.6,-22.2,-999.0,yes,yes,no,300234061367410,SVP,unknown,NPEO,North
2014-04-08T16:00:28Z,1396972829,2014,16,0,98.667,98.625,89.2362,13.2868,1018.9,-22.1,-999.0,yes,yes,no,300234061367410,SVP,unknown,NPEO,North
2014-04-08T16:59:31Z,1396976371,2014,17,0,98.708,98.625,89.2362,13.2868,1018.6,-22.0,-999.0,yes,yes,no,300234061367410,SVP,unknown,NPEO,North
2014-04-08T18:00:00Z,1396980000,2014,18,0,98.75,98.75,89.2344,13.24,1017.9,-22.2,-999.0,yes,yes,no,300234061367410,SVP,unknown,NPEO,North
2014-04-08T19:00:28Z,1396983629,2014,19,0,98.792,98.75,89.2344,13.24,1017.4,-23.7,-999.0,yes,yes,no,300234061367410,SVP,unknown,NPEO,North
2014-04-08T19:59:31Z,1396987171,2014,20,0,98.833,98.75,89.2344,13.24,1017.0,-25.1,-999.0,yes,yes,no,300234061367410,SVP,unknown,NPEO,North
2014-04-08T21:00:00Z,1396990800,2014,21,0,98.875,98.875,89.2318,13.2042,1016.6,-25.3,-999.0,yes,yes,no,300234061367410,SVP,unknown,NPEO,North
2014-04-08T22:00:28Z,1396994429,2014,22,0,98.917,98.875,89.2318,13.2042,1016.5,-25.7,-999.0,yes,yes,no,300234061367410,SVP,unknown,NPEO,North
2014-04-08T22:59:31Z,1396997971,2014,23,0,98.958,98.875,89.2318,13.2042,1016.1,-24.7,-999.0,yes,yes,no,300234061367410,SVP,unknown,NPEO,North
2014-04-09T00:00:00Z,1397001600,2014,0,0,99.0,99.0,89.2282,13.1366,1015.9,-24.8,-999.0,yes,yes,no,300234061367410,SVP,unknown,NPEO,North
2014-04-09T01:00:28Z,1397005229,2014,1,0,99.042,99.0,89.2282,13.1366,1015.4,-24.1,-999.0,yes,yes,no,300234061367410,SVP,unknown,NPEO,North
2014-04-09T01:59:31Z,1397008771,2014,2,0,99.083,99.0,89.2282,13.1366,1015.0,-23.9,-999.0,yes,yes,no,300234061367410,SVP,unknown,NPEO,North
2014-04-09T03:00:00Z,1397012400,2014,3,0,99.125,99.125,89.2248,13.0234,1014.7,-22.9,-999.0,yes,yes,no,300234061367410,SVP,unknown,NPEO,North
2014-04-09T04:00:28Z,1397016029,2014,4,0,99.167,99.125,89.2248,13.0234,1014.3,-22.4,-999.0,yes,yes,no,300234061367410,SVP,unknown,NPEO,North
2014-04-09T04:59:31Z,1397019571,2014,5,0,99.208,99.125,89.2248,13.0234,1014.0,-23.8,-999.0,yes,yes,no,300234061367410,SVP,unknown,NPEO,North
2014-04-09T06:00:00Z,1397023200,2014,6,0,99.25,99.25,89.2216,12.9532,1013.9,-24.3,-999.0,yes,yes,no,300234061367410,SVP,unknown,NPEO,North
2014-04-09T07:00:28Z,1397026829,2014,7,0,99.292,99.25,89.2216,12.9532,1014.0,-23.4,-999.0,yes,yes,no,300234061367410,SVP,unknown,NPEO,North
2014-04-09T07:59:31Z,1397030371,2014,8,0,99.333,99.25,89.2216,12.9532,1013.9,-23.4,-999.0,yes,yes,no,300234061367410,SVP,unknown,NPEO,North
2014-04-09T09:00:00Z,1397034000,2014,9,0,99.375,99.375,89.2178,12.903,1014.1,-23.1,-999.0,yes,yes,no,300234061367410,SVP,unknown,NPEO,North
2014-04-09T10:00:28Z,1397037629,2014,10,0,99.417,99.375,89.2178,12.903,1014.2,-23.4,-999.0,yes,yes,no,300234061367410,SVP,unknown,NPEO,North
2014-04-09T10:59:31Z,1397041171,2014,11,0,99.458,99.375,89.2178,12.903,1014.5,-24.2,-999.0,yes,yes,no,300234061367410,SVP,unknown,NPEO,North
2014-04-09T12:00:00Z,1397044800,2014,12,0,99.5,99.5,89.2132,12.817,1014.4,-24.6,-999.0,yes,yes,no,300234061367410,SVP,unknown,NPEO,North
2014-04-09T13:00:28Z,1397048429,2014,13,0,99.542,99.5,89.2132,12.817,1014.4,-24.8,-999.0,yes,yes,no,300234061367410,SVP,unknown,NPEO,North
2014-04-09T13:59:31Z,1397051971,2014,14,0,99.583,99.5,89.2132,12.817,1014.4,-24.6,-999.0,yes,yes,no,300234061367410,SVP,unknown,NPEO,North
2014-04-09T15:00:00Z,1397055600,2014,15,0,99.625,99.625,89.208,12.6586,1014.4,-25.1,-999.0,yes,yes,no,300234061367410,SVP,unknown,NPEO,North
2014-04-09T16:00:28Z,1397059229,2014,16,0,99.667,99.625,89.208,12.6586,1014.5,-24.7,-999.0,yes,yes,no,300234061367410,SVP,unknown,NPEO,North
2014-04-09T16:59:31Z,1397062771,2014,17,0,99.708,99.625,89.208,12.6586,1014.4,-24.9,-999.0,yes,yes,no,300234061367410,SVP,unknown,NPEO,North
2014-04-09T18:00:00Z,1397066400,2014,18,0,99.75,99.75,89.2024,12.505,1014.5,-24.7,-999.0,yes,yes,no,300234061367410,SVP,unknown,NPEO,North
2014-04-09T19:00:28Z,1397070029,2014,19,0,99.792,99.75,89.2024,12.505,1014.7,-24.8,-999.0,yes,yes,no,300234061367410,SVP,unknown,NPEO,North
2014-04-09T19:59:31Z,1397073571,2014,20,0,99.833,99.75,89.2024,12.505,1014.8,-24.8,-999.0,yes,yes,no,300234061367410,SVP,unknown,NPEO,North
2014-04-09T21:00:00Z,1397077200,2014,21,0,99.875,99.875,89.1956,12.4164,1015.3,-25.3,-999.0,yes,yes,no,300234061367410,SVP,unknown,NPEO,North
2014-04-09T22:00:28Z,1397080829,2014,22,0,99.917,99.875,89.1956,12.4164,1015.5,-25.2,-999.0,yes,yes,no,300234061367410,SVP,unknown,NPEO,North
2014-04-09T22:59:31Z,1397084371,2014,23,0,99.958,99.875,89.1956,12.4164,1015.5,-23.3,-999.0,yes,yes,no,300234061367410,SVP,unknown,NPEO,North
2014-04-10T00:00:00Z,1397088000,2014,0,0,100.0,100.0,89.187,12.3212,1015.6,-24.2,-999.0,yes,yes,no,300234061367410,SVP,unknown,NPEO,North
2014-04-10T01:00:28Z,1397091629,2014,1,0,100.042,100.0,89.187,12.3212,1015.6,-24.1,-999.0,yes,yes,no,300234061367410,SVP,unknown,NPEO,North
2014-04-10T01:59:31Z,1397095171,2014,2,0,100.083,100.0,89.187,12.3212,1015.6,-23.9,-999.0,yes,yes,no,300234061367410,SVP,unknown,NPEO,North
2014-04-10T03:00:00Z,1397098800,2014,3,0,100.125,100.125,89.1786,12.2032,1015.4,-24.7,-999.0,yes,yes,no,300234061367410,SVP,unknown,NPEO,North
2014-04-10T04:00:28Z,1397102429,2014,4,0,100.167,100.125,89.1786,12.2032,1015.4,-23.3,-999.0,yes,yes,no,300234061367410,SVP,unknown,NPEO,North
2014-04-10T04:59:31Z,1397105971,2014,5,0,100.208,100.125,89.1786,12.2032,1015.0,-23.3,-999.0,yes,yes,no,300234061367410,SVP,unknown,NPEO,North
2014-04-10T06:00:00Z,1397109600,2014,6,0,100.25,100.25,89.171,12.0796,1014.9,-23.8,-999.0,yes,yes,no,300234061367410,SVP,unknown,NPEO,North
2014-04-10T07:00:28Z,1397113229,2014,7,0,100.292,100.25,89.171,12.0796,1014.9,-24.4,-999.0,yes,yes,no,300234061367410,SVP,unknown,NPEO,North
2014-04-10T07:59:31Z,1397116771,2014,8,0,100.333,100.25,89.171,12.0796,1014.8,-24.9,-999.0,yes,yes,no,300234061367410,SVP,unknown,NPEO,North
2014-04-10T09:00:00Z,1397120400,2014,9,0,100.375,100.375,89.1624,12.0002,1014.7,-25.2,-999.0,yes,yes,no,300234061367410,SVP,unknown,NPEO,North
2014-04-10T10:00:28Z,1397124029,2014,10,0,100.417,100.375,89.1624,12.0002,1014.2,-25.1,-999.0,yes,yes,no,300234061367410,SVP,unknown,NPEO,North
2014-04-10T10:59:31Z,1397127571,2014,11,0,100.458,100.375,89.1624,12.0002,1014.0,-25.0,-999.0,yes,yes,no,300234061367410,SVP,unknown,NPEO,North
2014-04-10T12:00:00Z,1397131200,2014,12,0,100.5,100.5,89.1536,11.9504,1013.6,-24.7,-999.0,yes,yes,no,300234061367410,SVP,unknown,NPEO,North
2014-04-10T13:00:28Z,1397134829,2014,13,0,100.542,100.5,89.1536,11.9504,1013.2,-24.5,-999.0,yes,yes,no,300234061367410,SVP,unknown,NPEO,North
2014-04-10T13:59:31Z,1397138371,2014,14,0,100.583,100.5,89.1536,11.9504,1012.8,-24.8,-999.0,yes,yes,no,300234061367410,SVP,unknown,NPEO,North
2014-04-10T15:00:00Z,1397142000,2014,15,0,100.625,100.625,89.1456,11.8772,1012.4,-25.0,-999.0,yes,yes,no,300234061367410,SVP,unknown,NPEO,North
2014-04-10T16:00:28Z,1397145629,2014,16,0,100.667,100.625,89.1456,11.8772,1011.7,-24.8,-999.0,yes,yes,no,300234061367410,SVP,unknown,NPEO,North
2014-04-10T16:59:31Z,1397149171,2014,17,0,100.708,100.625,89.1456,11.8772,1011.0,-24.9,-999.0,yes,yes,no,300234061367410,SVP,unknown,NPEO,North
2014-04-10T18:00:00Z,1397152800,2014,18,0,100.75,100.75,89.1382,11.8266,1010.4,-24.6,-999.0,yes,yes,no,300234061367410,SVP,unknown,NPEO,North
2014-04-10T19:00:28Z,1397156429,2014,19,0,100.792,100.75,89.1382,11.8266,1009.8,-24.8,-999.0,yes,yes,no,300234061367410,SVP,unknown,NPEO,North
2014-04-11T00:00:00Z,1397174400,2014,0,0,101.0,101.0,89.1224,11.8398,1007.1,-21.6,-999.0,yes,yes,no,300234061367410,SVP,unknown,NPEO,North
2014-04-11T01:00:28Z,1397178029,2014,1,0,101.042,101.0,89.1224,11.8398,1006.4,-22.4,-999.0,yes,yes,no,300234061367410,SVP,unknown,NPEO,North
2014-04-11T01:59:31Z,1397181571,2014,2,0,101.083,101.0,89.1224,11.8398,1005.8,-22.5,-999.0,yes,yes,no,300234061367410,SVP,unknown,NPEO,North
2014-04-11T03:00:00Z,1397185200,2014,3,0,101.125,101.125,89.1156,11.8148,1005.2,-22.8,-999.0,yes,yes,no,300234061367410,SVP,unknown,NPEO,North
2014-04-11T04:00:28Z,1397188829,2014,4,0,101.167,101.125,89.1156,11.8148,1004.5,-23.6,-999.0,yes,yes,no,300234061367410,SVP,unknown,NPEO,North
2014-04-11T04:59:31Z,1397192371,2014,5,0,101.208,101.125,89.1156,11.8148,1003.9,-23.5,-999.0,yes,yes,no,300234061367410,SVP,unknown,NPEO,North
2014-04-11T06:00:00Z,1397196000,2014,6,0,101.25,101.25,89.1096,11.8084,1003.2,-24.4,-999.0,yes,yes,no,300234061367410,SVP,unknown,NPEO,North
2014-04-11T07:00:28Z,1397199629,2014,7,0,101.292,101.25,89.1096,11.8084,1002.9,-25.0,-999.0,yes,yes,no,300234061367410,SVP,unknown,NPEO,North
2014-04-11T07:59:31Z,1397203171,2014,8,0,101.333,101.25,89.1096,11.8084,1002.6,-23.3,-999.0,yes,yes,no,300234061367410,SVP,unknown,NPEO,North
2014-04-11T09:00:00Z,1397206800,2014,9,0,101.375,101.375,89.103,11.8048,1002.3,-16.8,-999.0,yes,yes,no,300234061367410,SVP,unknown,NPEO,North
2014-04-11T10:00:28Z,1397210429,2014,10,0,101.417,101.375,89.103,11.8048,983.7,-15.1,-999.0,yes,yes,no,300234061367410,SVP,unknown,NPEO,North
2014-04-11T10:59:31Z,1397213971,2014,11,0,101.458,101.375,89.103,11.8048,976.1,19.8,-999.0,yes,yes,no,300234061367410,SVP,unknown,NPEO,North
2014-04-11T12:00:00Z,1397217600,2014,12,0,101.5,101.5,89.1556,177.7256,1000.0,-18.1,-999.0,yes,yes,no,300234061367410,SVP,unknown,NPEO,North
2014-04-11T13:00:28Z,1397221229,2014,13,0,101.542,101.5,89.1556,177.7256,999.9,-20.0,-999.0,yes,yes,no,300234061367410,SVP,unknown,NPEO,North
2014-04-11T13:59:31Z,1397224771,2014,14,0,101.583,101.5,89.1556,177.7256,999.7,-21.5,-999.0,yes,yes,no,300234061367410,SVP,unknown,NPEO,North
2014-04-11T15:00:00Z,1397228400,2014,15,0,101.625,101.625,89.1618,177.5832,999.4,-24.6,-999.0,yes,yes,no,300234061367410,SVP,unknown,NPEO,North
2014-04-11T16:00:28Z,1397232029,2014,16,0,101.667,101.625,89.1618,177.5832,999.2,-26.8,-999.0,yes,yes,no,300234061367410,SVP,unknown,NPEO,North
2014-04-11T16:59:31Z,1397235571,2014,17,0,101.708,101.625,89.1618,177.5832,999.1,-27.4,-999.0,yes,yes,no,300234061367410,SVP,unknown,NPEO,North
2014-04-11T18:00:00Z,1397239200,2014,18,0,101.75,101.75,89.1676,177.3862,998.8,-27.6,-999.0,yes,yes,no,300234061367410,SVP,unknown,NPEO,North
2014-04-11T19:00:28Z,1397242829,2014,19,0,101.792,101.75,89.1676,177.3862,998.6,-27.6,-999.0,yes,yes,no,300234061367410,SVP,unknown,NPEO,North
2014-04-11T19:59:31Z,1397246371,2014,20,0,101.833,101.75,89.1676,177.3862,998.5,-27.7,-999.0,yes,yes,no,300234061367410,SVP,unknown,NPEO,North
2014-04-11T21:00:00Z,1397250000,2014,21,0,101.875,101.875,89.175,177.1182,998.4,-27.6,-999.0,yes,yes,no,300234061367410,SVP,unknown,NPEO,North
2014-04-11T22:00:28Z,1397253629,2014,22,0,101.917,101.875,89.175,177.1182,998.2,-27.5,-999.0,yes,yes,no,300234061367410,SVP,unknown,NPEO,North
2014-04-11T22:59:31Z,1397257171,2014,23,0,101.958,101.875,89.175,177.1182,998.0,-27.7,-999.0,yes,yes,no,300234061367410,SVP,unknown,NPEO,North
2014-04-12T00:00:00Z,1397260800,2014,0,0,102.0,102.0,89.1832,176.7886,997.7,-27.9,-999.0,yes,yes,no,300234061367410,SVP,unknown,NPEO,North
2014-04-12T01:00:28Z,1397264429,2014,1,0,102.042,102.0,89.1832,176.7886,997.3,-27.8,-999.0,yes,yes,no,300234061367410,SVP,unknown,NPEO,North
2014-04-12T01:59:31Z,1397267971,2014,2,0,102.083,102.0,89.1832,176.7886,996.9,-27.8,-999.0,yes,yes,no,300234061367410,SVP,unknown,NPEO,North
2014-04-12T03:00:00Z,1397271600,2014,3,0,102.125,102.125,89.1916,176.3858,996.5,-27.9,-999.0,yes,yes,no,300234061367410,SVP,unknown,NPEO,North
2014-04-12T04:00:28Z,1397275229,2014,4,0,102.167,102.125,89.1916,176.3858,995.9,-27.8,-999.0,yes,yes,no,300234061367410,SVP,unknown,NPEO,North
2014-04-12T04:59:31Z,1397278771,2014,5,0,102.208,102.125,89.1916,176.3858,995.4,-27.7,-999.0,yes,yes,no,300234061367410,SVP,unknown,NPEO,North
2014-04-12T06:00:00Z,1397282400,2014,6,0,102.25,102.25,89.2,175.8556,995.1,-27.7,-999.0,yes,yes,no,300234061367410,SVP,unknown,NPEO,North
2014-04-12T07:00:28Z,1397286029,2014,7,0,102.292,102.25,89.2,175.8556,994.7,-27.7,-999.0,yes,yes,no,300234061367410,SVP,unknown,NPEO,North
2014-04-12T07:59:31Z,1397289571,2014,8,0,102.333,102.25,89.2,175.8556,994.2,-27.5,-999.0,yes,yes,no,300234061367410,SVP,unknown,NPEO,North
2014-04-12T09:00:00Z,1397293200,2014,9,0,102.375,102.375,89.21,175.1726,993.8,-27.4,-999.0,yes,yes,no,300234061367410,SVP,unknown,NPEO,North
2014-04-12T10:00:28Z,1397296829,2014,10,0,102.417,102.375,89.21,175.1726,993.2,-26.8,-999.0,yes,yes,no,300234061367410,SVP,unknown,NPEO,North
2014-04-12T10:59:31Z,1397300371,2014,11,0,102.458,102.375,89.21,175.1726,992.7,-26.4,-999.0,yes,yes,no,300234061367410,SVP,unknown,NPEO,North
2014-04-12T12:00:00Z,1397304000,2014,12,0,102.5,102.5,89.221,174.289,991.7,-26.0,-999.0,yes,yes,no,300234061367410,SVP,unknown,NPEO,North
2014-04-12T13:00:28Z,1397307629,2014,13,0,102.542,102.5,89.221,174.289,990.7,-24.4,-999.0,yes,yes,no,300234061367410,SVP,unknown,NPEO,North
2014-04-12T13:59:31Z,1397311171,2014,14,0,102.583,102.5,89.221,174.289,989.7,-23.2,-999.0,yes,yes,no,300234061367410,SVP,unknown,NPEO,North
2014-04-12T15:00:00Z,1397314800,2014,15,0,102.625,102.625,89.2322,173.1512,988.4,-22.3,-999.0,yes,yes,no,300234061367410,SVP,unknown,NPEO,North
2014-04-12T16:00:28Z,1397318429,2014,16,0,102.667,102.625,89.2322,173.1512,987.4,-21.7,-999.0,yes,yes,no,300234061367410,SVP,unknown,NPEO,North
2014-04-12T16:59:31Z,1397321971,2014,17,0,102.708,102.625,89.2322,173.1512,986.3,-21.3,-999.0,yes,yes,no,300234061367410,SVP,unknown,NPEO,North
2014-04-12T18:00:00Z,1397325600,2014,18,0,102.75,102.75,89.244,171.5728,985.1,-20.9,-999.0,yes,yes,no,300234061367410,SVP,unknown,NPEO,North
2014-04-12T19:00:28Z,1397329229,2014,19,0,102.792,102.75,89.244,171.5728,983.8,-20.6,-999.0,yes,yes,no,300234061367410,SVP,unknown,NPEO,North
2014-04-12T19:59:31Z,1397332771,2014,20,0,102.833,102.75,89.244,171.5728,982.5,-20.4,-999.0,yes,yes,no,300234061367410,SVP,unknown,NPEO,North
2014-04-12T21:00:00Z,1397336400,2014,21,0,102.875,102.875,89.2552,169.497,981.6,-20.1,-999.0,yes,yes,no,300234061367410,SVP,unknown,NPEO,North
2014-04-12T22:00:28Z,1397340029,2014,22,0,102.917,102.875,89.2552,169.497,980.7,-19.8,-999.0,yes,yes,no,300234061367410,SVP,unknown,NPEO,North
2014-04-12T22:59:31Z,1397343571,2014,23,0,102.958,102.875,89.2552,169.497,979.7,-19.5,-999.0,yes,yes,no,300234061367410,SVP,unknown,NPEO,North
2014-04-13T00:00:00Z,1397347200,2014,0,0,103.0,103.0,89.2656,167.316,978.7,-19.4,-999.0,yes,yes,no,300234061367410,SVP,unknown,NPEO,North
2014-04-13T01:00:28Z,1397350829,2014,1,0,103.042,103.0,89.2656,167.316,977.6,-19.4,-999.0,yes,yes,no,300234061367410,SVP,unknown,NPEO,North
2014-04-13T01:59:31Z,1397354371,2014,2,0,103.083,103.0,89.2656,167.316,976.6,-19.4,-999.0,yes,yes,no,300234061367410,SVP,unknown,NPEO,North
2014-04-13T03:00:00Z,1397358000,2014,3,0,103.125,103.125,89.2748,165.3516,975.6,-19.3,-999.0,yes,yes,no,300234061367410,SVP,unknown,NPEO,North
2014-04-13T04:00:28Z,1397361629,2014,4,0,103.167,103.125,89.2748,165.3516,974.7,-18.9,-999.0,yes,yes,no,300234061367410,SVP,unknown,NPEO,North
2014-04-13T04:59:31Z,1397365171,2014,5,0,103.208,103.125,89.2748,165.3516,973.9,-18.5,-999.0,yes,yes,no,300234061367410,SVP,unknown,NPEO,North
2014-04-13T06:00:00Z,1397368800,2014,6,0,103.25,103.25,89.2828,163.6134,973.1,-18.2,-999.0,yes,yes,no,300234061367410,SVP,unknown,NPEO,North
2014-04-13T07:00:28Z,1397372429,2014,7,0,103.292,103.25,89.2828,163.6134,972.4,-17.9,-999.0,yes,yes,no,300234061367410,SVP,unknown,NPEO,North
2014-04-13T07:59:31Z,1397375971,2014,8,0,103.333,103.25,89.2828,163.6134,971.9,-17.5,-999.0,yes,yes,no,300234061367410,SVP,unknown,NPEO,North
2014-04-13T09:00:00Z,1397379600,2014,9,0,103.375,103.375,89.2908,162.1536,971.3,-17.2,-999.0,yes,yes,no,300234061367410,SVP,unknown,NPEO,North
2014-04-13T10:00:28Z,1397383229,2014,10,0,103.417,103.375,89.2908,162.1536,970.9,-16.7,-999.0,yes,yes,no,300234061367410,SVP,unknown,NPEO,North
2014-04-13T10:59:31Z,1397386771,2014,11,0,103.458,103.375,89.2908,162.1536,970.5,-16.3,-999.0,yes,yes,no,300234061367410,SVP,unknown,NPEO,North
2014-04-13T12:00:00Z,1397390400,2014,12,0,103.5,103.5,89.2998,160.942,970.2,-15.8,-999.0,yes,yes,no,300234061367410,SVP,unknown,NPEO,North
2014-04-13T13:00:28Z,1397394029,2014,13,0,103.542,103.5,89.2998,160.942,970.2,-15.5,-999.0,yes,yes,no,300234061367410,SVP,unknown,NPEO,North
2014-04-13T13:59:31Z,1397397571,2014,14,0,103.583,103.5,89.2998,160.942,970.2,-15.2,-999.0,yes,yes,no,300234061367410,SVP,unknown,NPEO,North
2014-04-13T15:00:00Z,1397401200,2014,15,0,103.625,103.625,89.3106,160.0636,970.4,-15.0,-999.0,yes,yes,no,300234061367410,SVP,unknown,NPEO,North
2014-04-13T16:00:28Z,1397404829,2014,16,0,103.667,103.625,89.3106,160.0636,970.8,-15.0,-999.0,yes,yes,no,300234061367410,SVP,unknown,NPEO,North
2014-04-13T16:59:31Z,1397408371,2014,17,0,103.708,103.625,89.3106,160.0636,971.2,-15.1,-999.0,yes,yes,no,300234061367410,SVP,unknown,NPEO,North
2014-04-13T18:00:00Z,1397412000,2014,18,0,103.75,103.75,89.324,159.346,971.2,-15.3,-999.0,yes,yes,no,300234061367410,SVP,unknown,NPEO,North
2014-04-13T19:00:28Z,1397415629,2014,19,0,103.792,103.75,89.324,159.346,971.5,-15.4,-999.0,yes,yes,no,300234061367410,SVP,unknown,NPEO,North
2014-04-13T19:59:31Z,1397419171,2014,20,0,103.833,103.75,89.324,159.346,971.9,-15.4,-999.0,yes,yes,no,300234061367410,SVP,unknown,NPEO,North
2014-04-13T21:00:00Z,1397422800,2014,21,0,103.875,103.875,89.3404,158.7118,972.6,-15.6,-999.0,yes,yes,no,300234061367410,SVP,unknown,NPEO,North
2014-04-13T22:00:28Z,1397426429,2014,22,0,103.917,103.875,89.3404,158.7118,973.2,-15.9,-999.0,yes,yes,no,300234061367410,SVP,unknown,NPEO,North
2014-04-13T22:59:31Z,1397429971,2014,23,0,103.958,103.875,89.3404,158.7118,973.8,-16.6,-999.0,yes,yes,no,300234061367410,SVP,unknown,NPEO,North
2014-04-14T00:00:00Z,1397433600,2014,0,0,104.0,104.0,89.3598,158.1094,974.4,-17.2,-999.0,yes,yes,no,300234061367410,SVP,unknown,NPEO,North
2014-04-14T01:00:28Z,1397437229,2014,1,0,104.042,104.0,89.3598,158.1094,974.8,-17.6,-999.0,yes,yes,no,300234061367410,SVP,unknown,NPEO,North
2014-04-14T01:59:31Z,1397440771,2014,2,0,104.083,104.0,89.3598,158.1094,975.4,-17.9,-999.0,yes,yes,no,300234061367410,SVP,unknown,NPEO,North
2014-04-14T03:00:00Z,1397444400,2014,3,0,104.125,104.125,89.381,157.5924,976.0,-18.0,-999.0,yes,yes,no,300234061367410,SVP,unknown,NPEO,North
2014-04-14T04:00:28Z,1397448029,2014,4,0,104.167,104.125,89.381,157.5924,976.7,-18.3,-999.0,yes,yes,no,300234061367410,SVP,unknown,NPEO,North
2014-04-14T04:59:31Z,1397451571,2014,5,0,104.208,104.125,89.381,157.5924,977.4,-18.6,-999.0,yes,yes,no,300234061367410,SVP,unknown,NPEO,North
2014-04-14T06:00:00Z,1397455200,2014,6,0,104.25,104.25,89.4024,157.0296,977.8,-18.9,-999.0,yes,yes,no,300234061367410,SVP,unknown,NPEO,North
2014-04-14T07:00:28Z,1397458829,2014,7,0,104.292,104.25,89.4024,157.0296,978.6,-19.2,-999.0,yes,yes,no,300234061367410,SVP,unknown,NPEO,North
2014-04-14T07:59:31Z,1397462371,2014,8,0,104.333,104.25,89.4024,157.0296,979.2,-19.3,-999.0,yes,yes,no,300234061367410,SVP,unknown,NPEO,North
2014-04-14T09:00:00Z,1397466000,2014,9,0,104.375,104.375,89.422,156.4326,979.6,-19.6,-999.0,yes,yes,no,300234061367410,SVP,unknown,NPEO,North
2014-04-14T10:00:28Z,1397469629,2014,10,0,104.417,104.375,89.422,156.4326,980.1,-19.8,-999.0,yes,yes,no,300234061367410,SVP,unknown,NPEO,North
2014-04-14T10:59:31Z,1397473171,2014,11,0,104.458,104.375,89.422,156.4326,980.5,-19.8,-999.0,yes,yes,no,300234061367410,SVP,unknown,NPEO,North
2014-04-14T12:00:00Z,1397476800,2014,12,0,104.5,104.5,89.4346,155.6958,981.0,-20.0,-999.0,yes,yes,no,300234061367410,SVP,unknown,NPEO,North
2014-04-14T13:00:28Z,1397480429,2014,13,0,104.542,104.5,89.4346,155.6958,981.4,-20.1,-999.0,yes,yes,no,300234061367410,SVP,unknown,NPEO,North
2014-04-14T13:59:31Z,1397483971,2014,14,0,104.583,104.5,89.4346,155.6958,981.6,-20.2,-999.0,yes,yes,no,300234061367410,SVP,unknown,NPEO,North
2014-04-14T15:00:00Z,1397487600,2014,15,0,104.625,104.625,89.442,155.0328,981.8,-20.1,-999.0,yes,yes,no,300234061367410,SVP,unknown,NPEO,North
2014-04-14T16:00:28Z,1397491229,2014,16,0,104.667,104.625,89.442,155.0328,982.0,-20.0,-999.0,yes,yes,no,300234061367410,SVP,unknown,NPEO,North
2014-04-14T16:59:31Z,1397494771,2014,17,0,104.708,104.625,89.442,155.0328,982.3,-19.9,-999.0,yes,yes,no,300234061367410,SVP,unknown,NPEO,North
2014-04-14T18:00:00Z,1397498400,2014,18,0,104.75,104.75,89.448,154.8684,982.8,-19.7,-999.0,yes,yes,no,300234061367410,SVP,unknown,NPEO,North
2014-04-14T19:00:28Z,1397502029,2014,19,0,104.792,104.75,89.448,154.8684,983.3,-19.1,-999.0,yes,yes,no,300234061367410,SVP,unknown,NPEO,North
2014-04-14T19:59:31Z,1397505571,2014,20,0,104.833,104.75,89.448,154.8684,984.0,-18.6,-999.0,yes,yes,no,300234061367410,SVP,unknown,NPEO,North
2014-04-14T21:00:00Z,1397509200,2014,21,0,104.875,104.875,89.4548,155.3854,985.1,-18.2,-999.0,yes,yes,no,300234061367410,SVP,unknown,NPEO,North